CAPE
0 0 0 0 0 0 18 6 0 13 31 48 8 3 78 25 107 352 501 451 425 342 833 904 1151 1554 1340 1396 1606 1979 2257 2346 2349 2313 1965 1752 1918 2137 2156 2202 1791 1762 1961 1755
0 0 0 0 0 0 0 1 1 7 23 56 47 46 49 30 32 184 417 470 346 436 392 415 550 570 757 1723 2119 2022 2525 2649 2656 2369 2527 2371 2047 1974 1786 1689 1788 1624 1401 1468
0 0 0 0 0 0 0 0 0 6 23 4 66 79 26 61 72 80 133 316 333 289 341 548 699 769 971 1231 1711 1891 2372 2090 2444 2731 2553 1735 1772 942 802 1017 1157 978 373 189
0 0 0 0 0 0 0 0 0 0 6 5 0 0 22 9 11 89 62 104 195 196 267 499 660 909 997 1381 1747 1981 2341 2646 2715 1709 657 442 28 0 412 198 257 23 14 192
0 0 0 0 0 0 0 0 0 0 0 0 0 0 55 42 2 24 53 68 88 144 176 215 388 599 777 1351 1644 2377 2874 2177 1409 653 77 58 6 0 0 0 0 11 8 123
0 0 0 0 0 0 0 0 0 0 0 0 0 15 81 79 189 4 16 77 78 120 178 143 202 388 611 1112 1379 2397 2409 1315 735 397 193 52 0 2 0 72 41 89 19 3
0 0 0 0 0 0 0 0 0 0 0 0 0 3 14 39 29 121 18 9 70 161 270 279 182 359 595 1055 1421 2259 1783 1294 774 258 97 0 0 0 71 199 162 3 0 7
0 0 0 0 0 0 0 0 0 0 0 1 1 1 11 9 79 161 155 339 84 67 370 456 511 443 925 1196 1628 1580 1572 1220 863 325 106 67 74 95 176 394 209 2 0 35
0 0 0 0 0 0 0 0 0 0 0 0 0 0 0 0 0 0 16 0 200 85 108 447 737 965 1216 1293 1552 1474 1464 1403 919 340 576 576 395 220 126 188 152 61 211 96
0 0 0 0 0 0 0 0 0 0 0 0 1 0 0 13 0 0 0 0 17 246 269 273 567 1184 1643 1534 1595 1323 1295 1526 671 551 708 605 204 174 295 246 149 175 155 182
0 0 0 0 0 0 0 0 0 0 0 0 0 4 3 3 0 0 0 0 0 16 383 630 716 1389 1960 1514 1499 945 1038 1289 670 381 500 151 0 0 132 135 105 100 222 249
0 0 0 0 0 0 0 0 1 0 2 0 0 0 0 0 0 0 0 0 0 41 140 984 940 1580 2095 1594 1342 781 590 783 638 486 467 276 115 26 20 60 93 84 95 92
0 0 0 0 0 0 0 1 0 0 0 0 10 14 0 0 0 0 0 0 44 53 896 1387 1185 1247 1966 1769 1422 666 382 430 447 434 310 194 175 205 251 255 270 181 136 84
0 0 0 0 0 0 0 0 0 0 11 2 3 67 1 0 5 0 0 4 12 225 294 1562 1351 1268 1685 1770 1284 699 289 165 224 258 356 331 339 385 399 377 474 236 340 411
0 0 0 0 0 1 4 0 0 0 0 0 8 3 19 0 0 0 0 0 0 40 469 1364 1379 1492 1656 1666 1058 782 304 197 112 126 178 224 296 429 557 566 440 375 369 488
0 0 0 0 0 0 0 0 25 0 0 0 0 0 2 20 0 0 0 0 0 0 0 422 1507 1353 1892 1722 1117 632 315 382 152 345 332 317 385 458 536 714 787 597 623 515
14 0 0 0 0 0 0 1 2 21 18 0 5 72 107 7 0 0 0 0 0 0 0 2 808 1475 2114 1722 1147 531 507 399 262 458 432 420 455 498 642 732 648 549 439 423
27 31 1 0 10 46 0 36 30 39 29 1 56 10 0 6 0 0 0 0 0 0 1 22 367 1423 1794 1620 1109 1020 788 415 681 720 747 714 725 757 881 877 676 605 577 559
7 206 36 30 0 23 70 126 136 29 48 93 119 92 75 1 0 53 21 0 2 30 253 337 115 828 1815 1538 1219 1231 737 645 829 839 842 953 918 952 1023 1029 806 721 695 433
0 4 6 38 120 15 65 167 87 45 0 52 43 93 33 20 0 288 180 101 92 138 362 519 598 1014 1933 1674 1600 1243 679 869 817 829 1041 1145 1128 1202 1187 1095 873 825 720 465
0 17 35 73 41 0 54 87 20 0 0 62 58 10 5 5 11 48 148 87 126 239 495 1010 1079 1370 2038 1760 1501 877 564 841 952 1032 1146 1137 1292 1336 1229 1136 936 889 538 50
72 134 24 0 14 1 182 242 37 269 18 83 122 91 70 23 13 14 0 247 166 262 490 961 1385 1858 1880 1601 1303 604 645 921 1342 1202 1119 1242 1328 1169 986 892 685 729 576 655
136 91 1 237 250 148 282 333 107 92 85 4 8 19 13 21 8 0 0 15 400 419 541 934 1315 1628 1536 1240 798 1189 1341 1572 1660 1554 1455 1296 1113 899 1011 672 499 1046 798 582
276 50 188 4 0 0 5 14 19 30 10 0 0 0 1 19 46 87 81 277 686 799 886 937 1273 1524 1030 1623 1770 2154 2228 2205 2102 2156 2065 1733 1356 1299 1057 732 857 723 608 385
69 5 1 67 5 9 2 0 0 2 0 0 0 0 4 57 134 327 342 872 1210 1225 1076 1190 1308 1065 609 331 194 193 806 1663 1965 2396 2038 1646 1471 1000 746 126 53 226 0 0
59 69 97 57 0 29 0 0 0 0 0 0 0 0 1 65 214 783 1275 1307 1307 1207 1162 644 309 207 0 0 385 444 15 1233 1478 1290 1125 953 734 300 329 142 0 0 0 0
CIN
0 0 0 0 0 0 -5 -11 0 -31 -40 -83 -93 -76 -67 -65 -21 -19 -14 -45 -31 -52 -13 -16 -17 -9 -4 -3 -10 -12 -12 -3 -3 -5 -18 -22 -9 -9 -23 -15 -12 -19 -15 -11
0 0 0 0 0 0 0 -3 -2 -12 -1 -14 -30 -53 -19 -31 -46 -16 -13 -47 -42 -32 -90 -101 -80 -47 -21 -3 -8 -8 -8 -10 -3 -8 -6 -5 -7 -2 -13 -17 -6 -5 -1 -4
0 0 0 0 0 0 0 0 0 -14 -4 -17 -8 -18 -137 -15 -8 -21 -17 -40 -52 -62 -102 -113 -95 -72 -20 -7 -8 -8 -4 -18 -5 -2 -5 -16 -7 -13 -10 -4 -6 -26 -71 -117
0 0 0 0 0 0 0 0 0 0 -3 -3 0 0 -78 -24 -25 -28 -41 -51 -28 -64 -84 -97 -92 -58 -31 -24 -13 -15 -3 -2 -4 -13 -34 -66 -77 0 -82 -144 -138 -265 -108 -135
0 0 0 0 0 0 0 0 0 0 0 0 0 -1 -30 -2 -8 -60 -55 -63 -36 -39 -72 -97 -101 -68 -33 -24 -21 -17 -2 -11 -36 -83 -283 -317 -315 0 0 0 -20 -235 -158 -196
0 0 0 0 0 0 0 0 0 0 0 0 0 -6 -23 -48 -18 -19 -23 -17 -21 -20 -39 -60 -87 -90 -43 -27 -23 -15 -29 -68 -102 -146 -233 -335 0 -50 0 -305 -205 -275 -104 -87
0 0 0 0 0 0 0 0 0 0 0 0 -1 -5 -19 -27 -39 -33 -81 -94 -31 -42 -21 -41 -67 -85 -67 -41 -18 -16 -65 -96 -120 -195 -291 0 0 -23 -335 -205 -206 -107 0 -130
0 0 0 0 0 0 0 0 0 0 0 -8 -11 -5 -44 -7 -5 -73 -41 -25 -37 -52 -55 -51 -46 -56 -54 -44 -31 -48 -87 -112 -131 -177 -288 -329 -310 -292 -212 -104 -168 -272 0 -209
0 0 0 0 0 0 0 0 0 0 0 0 -1 0 0 0 0 0 -13 0 -9 -29 -37 -57 -36 -22 -42 -38 -48 -75 -74 -103 -136 -183 -153 -146 -177 -197 -200 -165 -190 -246 -128 -195
0 0 0 0 0 0 0 0 0 0 0 -1 -4 0 0 -15 0 0 0 0 -2 -9 -27 -26 -13 -21 -37 -37 -41 -92 -73 -71 -160 -173 -149 -133 -203 -221 -150 -149 -178 -143 -139 -109
0 0 0 0 0 0 0 0 0 0 0 0 0 -44 -11 -18 0 0 0 0 0 -23 -8 -21 -23 -19 -44 -41 -34 -122 -110 -77 -159 -189 -162 -192 0 0 -188 -174 -175 -161 -71 -57
0 0 0 0 0 0 0 0 -3 0 -2 -1 -1 0 0 0 0 0 0 0 0 -37 -26 -17 -34 -15 -33 -39 -42 -127 -172 -133 -149 -174 -177 -197 -232 -222 -204 -164 -129 -132 -115 -100
0 0 0 -1 -4 0 0 -5 0 0 0 -1 -5 -11 0 0 0 0 -1 0 -27 -43 -6 -21 -16 -21 -24 -45 -50 -148 -187 -169 -155 -168 -200 -198 -205 -186 -143 -104 -59 -56 -62 -97
-4 0 0 0 0 -6 0 0 0 -3 -6 -13 -16 -13 -11 0 -5 0 0 -38 -38 -22 -19 -16 -23 -20 -33 -58 -102 -130 -182 -166 -159 -179 -187 -182 -171 -148 -102 -60 -9 -22 -6 -3
0 0 0 0 0 -3 -22 -3 0 0 0 -2 -6 -9 -27 0 -2 0 0 0 0 -36 -15 -11 -16 -13 -30 -62 -118 -138 -182 -162 -148 -165 -147 -140 -123 -101 -77 -40 -21 -22 -10 -3
0 -8 0 0 0 0 0 0 -15 -6 0 0 -1 -5 -50 -36 -9 0 0 0 0 0 0 -24 -15 -20 -21 -54 -116 -171 -185 -164 -163 -126 -123 -128 -104 -78 -54 -12 -3 -14 -13 -6
-25 0 0 0 0 0 0 -7 -11 -16 -23 -2 -8 -7 -59 -20 0 0 0 0 0 0 0 -32 -4 -16 -20 -64 -111 -212 -164 -168 -161 -114 -103 -119 -92 -66 -30 -26 -31 -26 -17 -18
-8 -18 -2 0 -4 -5 -1 -5 -13 -3 -21 -29 -20 -76 0 -85 0 0 0 0 0 0 -97 -109 -18 -8 -23 -52 -84 -117 -135 -149 -90 -92 -85 -89 -62 -41 -28 -26 -26 -13 -14 -13
-247 -13 -2 -5 -1 -9 -6 -21 -16 -114 -11 -14 -14 -33 -22 -50 0 -49 -115 0 -96 -91 -44 -47 -52 -5 -16 -32 -61 -86 -115 -96 -67 -78 -77 -66 -52 -43 -24 -6 -6 -7 -7 -10
0 -2 0 -58 -3 -7 -14 -23 -38 -124 0 -84 -122 -41 -45 -67 -2 -29 -114 -79 -39 -46 -43 -29 -15 -19 -13 -22 -18 -41 -84 -59 -62 -72 -72 -64 -51 -19 -4 -2 -6 -9 -14 -20
0 -10 -9 -13 -17 0 -13 -55 -82 0 0 -121 -55 -82 -56 -87 -51 -78 -35 -41 -47 -38 -32 -20 -17 -18 -21 -21 -27 -71 -75 -33 -34 -40 -47 -36 -18 -4 -3 -4 -12 -20 -27 -63
-59 -15 -80 0 -5 -2 -37 -47 -44 -9 -117 -60 -46 -55 -38 -47 -37 -64 0 -11 -12 -16 -20 -12 -8 -14 -24 -24 -15 -55 -44 -29 -21 -26 -17 -8 -7 -7 -8 -10 -19 -27 -36 -36
-7 -65 -98 -18 -124 -198 -66 -118 -96 -49 -85 -54 -52 -91 -63 -77 -77 0 0 -61 -8 -14 -4 -7 -12 -13 -20 -33 -19 -6 -14 -22 -29 -20 -7 -8 -12 -16 -20 -28 -37 -14 -15 -10
-32 -118 -31 -114 0 0 -2 -151 -212 -222 -160 0 -10 0 -17 -95 -115 -93 -97 -53 -7 -5 -5 -7 -8 -14 -18 -10 -17 -25 -47 -60 -45 -29 -18 -9 -12 -20 -22 -21 -18 -12 -13 -22
-40 -136 -13 -44 -107 -6 -29 0 0 -128 0 0 0 0 -64 -118 -84 -74 -62 -10 -15 -16 -23 -40 -45 -111 -209 -193 -283 -151 -44 -7 -5 -3 -3 -11 -7 -22 -21 -86 -57 -60 0 0
-16 -17 -7 -78 0 -32 0 0 0 0 0 0 0 0 -35 -93 -64 -10 -14 -26 -34 -66 -87 -149 -203 -255 0 0 -29 -36 -8 -23 -13 -15 -8 -3 -4 -19 -16 -95 0 0 0 0
Wind_Speed
24 29 26 27 28 31 27 26 3 13 8 13 10 12 15 17 16 16 16 16 17 19 19 19 19 20 20 18 16 15 14 12 11 11 10 8 7 6 4 3 3 3 5 5
21 27 28 27 27 31 29 5 1 1 3 4 6 10 15 14 12 13 14 14 15 17 17 19 18 19 18 18 17 17 15 14 13 12 11 10 8 6 4 4 6 8 9 9
23 25 31 27 24 26 28 19 3 2 2 11 3 5 2 20 8 9 10 10 13 14 15 17 19 19 18 16 16 16 16 15 14 13 12 11 9 9 9 14 12 14 15 14
31 24 28 29 25 19 24 13 30 12 6 9 2 11 4 16 4 4 5 7 11 14 14 15 18 17 16 14 14 14 14 14 14 16 18 17 17 11 13 12 15 18 17 16
21 34 25 24 28 23 14 18 21 13 8 10 5 4 3 8 6 3 10 10 10 14 14 14 16 14 12 12 12 11 12 13 14 16 19 20 21 20 18 16 15 16 10 10
37 27 19 15 25 12 17 18 12 2 3 18 12 7 0 7 9 7 15 10 11 12 12 12 12 12 10 9 10 9 10 11 13 15 17 19 20 19 17 18 17 13 19 15
17 30 11 12 7 11 9 4 2 2 6 7 7 11 5 2 7 7 10 28 16 10 11 10 11 11 9 8 7 6 6 8 10 13 16 20 21 20 17 14 16 20 17 20
18 18 10 10 11 6 7 5 3 0 3 1 4 4 7 6 3 11 10 20 12 13 12 11 11 12 10 8 5 3 3 5 8 10 14 20 21 20 17 20 19 20 20 20
16 20 11 12 18 10 8 10 13 24 25 19 8 10 8 6 7 11 8 10 9 11 14 13 12 11 11 9 7 3 1 2 5 8 12 16 18 19 19 20 19 18 20 21
16 20 12 16 15 21 17 8 17 20 19 22 15 17 12 1 4 6 7 9 10 7 13 13 13 12 12 10 7 4 3 1 3 6 9 12 16 17 18 18 18 19 19 18
41 17 14 13 19 16 14 20 17 20 16 15 18 15 10 5 6 8 8 8 10 10 7 11 10 11 12 11 9 5 5 3 1 4 8 13 17 17 17 18 17 19 19 19
41 26 29 20 12 12 13 15 16 22 22 24 25 21 5 6 6 6 9 12 11 14 22 9 7 8 11 10 9 7 5 5 2 3 7 11 14 16 17 18 18 19 20 19
34 30 27 24 14 13 27 18 12 19 24 25 22 15 7 7 7 9 9 14 11 9 8 3 5 9 11 11 10 8 6 5 3 3 6 9 12 14 16 17 18 18 18 18
34 32 31 31 25 10 14 21 24 30 25 25 20 14 10 7 8 7 10 10 13 9 7 5 6 9 12 12 11 9 8 5 3 2 5 8 11 13 15 16 16 17 16 17
34 30 32 34 37 36 34 14 22 30 38 35 28 21 21 14 12 14 15 18 19 17 10 8 8 9 13 12 11 9 7 5 3 3 8 10 10 12 13 14 15 15 17 19
23 28 28 34 33 33 35 38 16 16 25 34 31 35 11 8 8 12 19 21 23 22 20 15 10 11 12 13 12 9 7 5 5 4 6 8 10 11 12 13 13 15 18 22
23 29 31 35 31 35 38 33 38 26 18 18 30 26 9 9 18 22 22 23 26 28 24 23 11 10 11 12 12 10 8 6 6 6 7 9 9 12 12 12 13 16 20 21
24 30 29 35 33 37 33 38 28 30 27 23 18 19 16 19 22 21 21 26 28 24 22 21 10 6 8 10 10 8 7 7 6 5 7 8 9 11 11 12 15 16 18 20
20 19 22 33 32 30 29 26 19 19 29 27 24 25 24 18 22 24 29 20 21 22 20 16 13 4 5 9 8 7 6 6 5 6 8 9 10 11 12 14 16 17 18 21
18 9 45 20 30 37 31 21 21 27 32 22 23 21 19 19 23 20 22 20 20 22 20 16 11 5 5 7 8 7 7 6 5 6 7 9 11 12 14 16 16 17 19 21
38 29 37 30 34 37 32 25 15 27 32 34 23 14 16 19 20 21 17 19 19 17 16 13 9 3 4 6 7 7 6 5 5 6 9 11 12 14 16 17 17 18 20 26
42 33 38 37 36 37 31 13 17 10 9 13 15 17 17 20 20 23 29 22 16 14 12 9 7 3 2 3 4 7 6 6 8 10 13 15 14 15 16 18 20 21 23 23
31 25 28 26 18 25 14 5 3 9 11 15 17 19 20 23 26 30 32 34 14 11 10 6 4 4 2 3 4 2 7 11 15 16 17 18 18 17 19 20 22 22 22 22
21 18 22 22 18 17 23 9 15 18 19 20 20 22 25 29 31 33 33 30 14 11 8 7 5 4 4 4 5 10 12 15 19 21 19 18 19 19 19 19 18 18 24 24
26 19 29 25 17 18 8 13 17 20 21 22 25 27 30 33 34 34 29 20 12 12 9 10 6 7 13 16 9 16 21 22 24 24 20 20 20 21 21 24 23 19 25 26
21 16 12 12 18 18 19 18 17 21 24 25 27 29 31 32 33 28 16 12 10 9 10 9 11 12 13 22 18 14 28 19 19 21 20 20 22 24 20 19 23 27 23 23
Wind_Direction
165 169 173 170 168 191 180 189 118 167 116 114 109 119 127 134 120 122 120 117 123 125 119 115 116 119 124 118 100 93 94 80 69 68 74 75 77 78 89 95 96 66 34 26
156 175 177 176 176 192 195 309 123 220 53 34 67 118 143 133 123 126 130 125 127 122 114 119 114 121 113 112 105 101 92 86 83 82 75 70 63 61 69 76 60 45 38 40
168 171 187 184 173 183 199 173 315 164 353 312 342 72 135 232 130 121 134 134 138 132 125 126 128 129 120 107 101 96 91 88 84 79 66 60 70 56 47 33 48 39 20 12
186 173 183 189 183 167 185 170 214 174 132 169 275 194 238 175 178 151 160 155 153 145 138 135 139 135 124 110 103 96 90 81 71 51 33 24 17 30 25 25 15 2 4 7
178 196 183 185 193 185 178 173 182 175 180 187 191 203 163 176 194 233 175 173 164 157 154 148 148 138 128 113 109 90 86 61 50 40 26 22 13 9 15 17 12 10 20 19
234 251 236 180 190 171 166 284 175 213 212 209 197 174 226 286 239 227 289 241 175 169 166 162 155 146 136 120 112 94 69 50 44 40 36 31 27 18 10 3 7 19 8 12
245 191 251 256 203 172 169 276 290 283 199 201 186 199 202 198 216 190 151 189 176 176 177 175 169 165 159 147 131 87 65 54 44 35 31 22 18 17 16 17 9 3 8 5
243 245 222 236 188 224 229 217 260 124 353 266 312 341 180 327 38 178 174 184 186 181 182 183 178 174 171 170 166 136 80 45 38 29 20 15 15 17 17 6 2 359 357 357
232 254 223 219 252 232 249 238 201 284 296 310 321 321 322 336 330 310 318 292 230 193 188 186 181 181 178 182 188 190 168 39 26 24 14 13 17 18 11 4 360 0 358 356
246 258 227 246 253 257 260 265 276 278 299 302 305 310 307 278 9 8 356 318 309 205 189 186 188 186 181 187 193 196 208 216 17 18 14 13 12 12 13 9 3 358 357 357
232 248 248 227 246 240 248 268 273 278 284 304 308 321 28 29 27 28 13 6 337 317 225 190 191 190 182 182 189 199 208 212 303 7 11 7 5 7 10 7 4 357 356 356
237 261 261 225 235 215 248 255 273 273 284 288 292 315 17 24 17 6 358 356 355 328 302 188 200 200 185 188 195 200 210 219 259 342 358 2 4 7 4 3 0 357 355 354
238 250 256 257 238 227 253 260 251 274 279 283 290 296 347 359 356 357 1 355 358 350 353 191 228 208 195 198 200 203 206 211 228 318 352 360 1 2 0 359 358 358 356 354
240 245 251 255 257 231 241 258 263 270 275 281 283 300 301 315 310 340 342 358 354 342 324 258 257 224 203 197 192 193 195 206 230 267 331 346 351 357 358 357 357 356 355 354
240 250 253 255 258 259 259 250 264 268 269 276 279 277 287 309 297 321 322 332 334 339 315 276 242 233 213 203 199 201 205 220 250 291 332 343 350 353 355 354 355 355 353 349
238 248 255 260 263 263 267 266 249 258 271 270 276 269 281 270 331 310 316 324 328 329 320 309 242 229 217 209 206 209 213 237 284 297 317 334 340 346 349 350 351 349 347 347
242 248 255 261 263 267 266 268 263 277 264 271 277 289 309 304 292 303 318 325 326 326 320 311 282 245 227 210 207 215 223 252 251 283 313 329 335 339 340 344 345 345 346 346
256 253 252 256 262 262 267 258 273 274 274 265 281 276 287 295 305 314 320 319 326 330 325 318 313 286 225 202 205 214 229 236 238 266 305 321 327 330 332 333 336 340 343 344
290 260 254 252 256 270 272 277 287 297 279 286 289 273 281 318 304 319 324 321 328 333 337 332 324 288 201 188 195 203 216 213 235 276 301 314 321 322 324 325 330 335 337 340
253 217 233 249 259 263 272 285 283 300 278 303 316 285 279 288 304 325 334 336 333 329 336 338 337 328 179 179 177 190 193 206 237 280 303 316 318 319 321 323 327 335 338 335
254 265 266 279 276 275 279 293 296 275 268 283 290 300 308 318 315 334 351 336 332 336 338 344 344 344 146 165 172 184 197 233 264 297 313 317 316 317 320 324 329 330 329 333
266 267 271 275 273 275 279 288 267 299 296 313 306 312 305 305 322 333 330 329 322 328 339 346 349 32 108 170 192 197 221 261 305 316 320 321 320 320 327 326 327 327 330 331
269 268 265 279 284 296 308 272 316 304 314 311 311 315 314 311 315 316 317 313 306 315 322 336 337 323 292 195 220 285 312 322 327 329 326 323 325 326 323 321 325 327 328 329
275 294 280 276 271 281 285 295 298 301 306 308 313 312 313 312 314 315 315 312 300 308 304 316 304 307 285 275 307 310 301 320 324 323 324 327 325 323 323 319 315 323 332 336
255 285 275 284 298 268 288 301 307 305 306 312 310 313 311 314 314 314 314 312 318 324 331 336 339 335 334 311 327 338 335 352 337 328 333 326 325 323 322 331 321 354 339 335
315 290 296 297 284 300 349 327 316 308 310 313 312 314 317 316 317 320 324 324 322 322 324 315 312 319 319 325 326 345 316 339 336 333 332 330 329 329 333 336 331 338 340 341